User: anonymous   Login
Location: Unspecified
(0.0000°N, 0.0000°E)
Time: 23:53:34
(UTC+00:00)
Language:

STARLINK-34041 - Orbit

View from above orbital plane
View from above orbital plane
View from above satellite
View from above satellite

Ground track
Ground track

The orbit is defined by the following mean orbital elements,

1 63844U          26145.02767685 +.00000000 +00000-0 +52007-3 0 00004
2 63844  43.0005   7.0812 0001798 268.4504  91.6141 15.27602072    05
Epoch (UTC): 25 May 2026 00:39:51
Eccentricity: 0.0001798
inclination: 43.0005°
perigee height: 482 km
apogee height: 484 km
right ascension of ascending node: 7.0812°
argument of perigee: 268.4504°
revolutions per day: 15.27602072
mean anomaly at epoch: 91.6141°

The dashed part of the orbit path shows where the satellite is in the earth's shadow,  

DLR